TIME,DELAY(SENSOR),PRES,OXYGEN,RAWTEMP,T(OPTODE),TCPHASE,FLUOR,BETA(BETA700),BETA(BETA412),BETA(BETA440),CDOM,C(CSC),ED(ED412.40),ED(ED444.00),ED(ED489.70),ED(ED554.30),LU(LU411.80),LU(LU443.40),LU(LU489.60),LU(LU554.10),COMP,TILTX,TILTY,CHECK
1336017450,5807,883.9699707031250000,42.8027992248535160,661.2006835937500000,4.5884361267089840,54.5926284790039060,53,103,87,81,83,15316,2147758866,2147422326,2148007414,2147873417,2147640621,2147059419,2148260891,2147201636,929,4,13,54987
1336021046,5810,971.5300292968750000,46.6481781005859400,670.6785888671875000,4.2757759094238280,54.1512107849121100,52,100,86,80,83,15318,2147758729,2147421833,2148008000,2147876370,2147640484,2147058258,2148264420,2147201654,3502,4,14,52371
1336024646,5806,988.8300170898438000,46.5329399108886700,671.5811767578125000,4.2459487915039060,54.1775093078613300,53,99,88,80,83,15309,2147761563,2147425728,2148007826,2147875501,2147642267,2147055552,2148258889,2147202112,3451,4,13,12426
1336028246,5808,996.8200073242188000,46.6041717529296900,671.9462280273438000,4.2338871955871580,54.1718788146972660,53,101,86,79,84,15314,2147760448,2147423058,2148006848,2147874102,2147642203,2147062180,2148263277,2147200585,3461,4,13,62867
1336031846,5811,996.5700073242188000,46.5534400939941400,672.0861206054688000,4.2292628288269040,54.1756896972656250,54,101,86,80,83,15312,2147755766,2147419245,2148009042,2147874642,2147642560,2147058066,2148260672,2147202614,76,5,13,141
1336035446,5809,1003.0200195312500000,46.1828498840332000,671.9954223632812000,4.2322602272033690,54.2274208068847660,52,103,87,80,84,15314,2147758747,2147420214,2148012626,2147872758,2147642002,2147056576,2148266724,2147198674,3009,4,13,36977
1336039046,5805,1009.3400268554688000,46.3372192382812500,672.5432739257812000,4.2141461372375490,54.2117385864257800,53,99,85,79,83,15311,2147759405,2147419748,2148007972,2147874267,2147642404,2147062290,2148267611,2147198656,388,4,13,2961
1336042646,5811,1007.3300170898438000,46.0889282226562500,672.4298095703125000,4.2178988456726070,54.2495689392089840,52,121,91,81,84,15309,2147760941,2147422089,2148008832,2147874697,2147642304,2147058541,2148263552,2147198198,282,4,13,57690
1336046246,5811,1008.7399902343750000,45.7866096496582000,672.6179809570312000,4.2116761207580570,54.2984390258789060,53,99,86,78,84,15310,2147759104,2147421184,2148004809,2147872429,2147643044,2147060534,2148260754,2147201609,442,4,13,52761
1336049846,5809,999.2700195312500000,46.4307403564453100,673.8679199218750000,4.1703410148620605,54.2155799865722660,52,101,88,79,83,15312,2147758582,2147421650,2148007094,2147874889,2147639314,2147059584,2148262253,2147202048,113,4,14,56799
1336053446,5806,1010.6699829101562000,46.4603996276855500,673.9406127929688000,4.1679382324218750,54.2174797058105500,53,101,87,79,83,15311,2147757568,2147420434,2148006464,2147874925,2147643547,2147061184,2148264530,2147201526,288,4,13,34386
1336057046,5811,1004.6099853515625000,46.2182197570800800,673.6129150390625000,4.1787781715393070,54.2473602294921900,53,98,90,79,84,15312,2147761865,2147422774,2148010212,2147872896,2147640740,2147065261,2148265590,2147199442,34,4,13,43316
1336060646,5811,1008.7899780273438000,45.9207000732421900,673.7775878906250000,4.1733260154724120,54.2933006286621100,53,102,87,80,83,15312,2147757842,2147420763,2148007789,2147875236,2147642587,2147061019,2148263268,2147198646,22,4,13,62797
1336064246,5811,996.9199829101562000,46.1604385375976560,673.8607788085938000,4.1705741882324220,54.2569694519043000,53,101,89,80,84,15309,2147758016,2147423259,2148008082,2147874148,2147644873,2147059355,2148265334,2147198976,64,4,13,61340
1336067846,5809,996.0399780273438000,47.0483093261718750,676.6046752929688000,4.0797729492187500,54.1626701354980500,52,101,89,80,84,15306,2147762148,2147422089,2148009618,2147873883,2147645019,2147060041,2148262244,2147198710,72,4,13,26862
1336071446,5809,1011.6300048828125000,46.9648017883300800,674.6898193359375000,4.1431498527526855,54.1520500183105500,53,99,92,80,83,15305,2147759387,2147417627,2148005686,2147874413,2147645046,2147063003,2148263990,2147199588,3271,4,13,44731
1336075046,5808,1014.8499755859375000,46.0665283203125000,673.0684814453125000,4.1967811584472660,54.2605590820312500,53,98,90,79,84,15307,2147759981,2147417307,2148007122,2147876644,2147645037,2147053312,2148262528,2147200000,333,4,13,13385
1336078646,5806,1020.3400268554688000,45.6175384521484400,671.2360839843750000,4.2573571205139160,54.3019599914550800,52,100,89,79,84,15311,2147761133,2147421522,2148006610,2147874441,2147639798,2147060772,2148261504,2147199945,504,4,13,41785
1336082246,5808,1015.9799804687500000,45.4849395751953100,672.0106811523438000,4.2317538261413570,54.3289909362793000,53,99,87,80,83,15301,2147762432,2147420598,2148009005,2147875053,2147643520,2147061257,2148265170,2147196845,346,4,13,51510
1336085846,5810,1010.0200195312500000,45.9797096252441400,673.3781738281250000,4.1865391731262210,54.2773399353027340,53,101,89,80,85,15307,2147759396,2147421366,2148006848,2147874889,2147640082,2147060361,2148267693,2147200347,3282,4,13,26844
1336089446,5811,1009.5800170898438000,45.6295204162597660,674.3082885742188000,4.1557707786560060,54.3358192443847660,53,100,90,79,83,15300,2147759643,2147419428,2148009179,2147873837,2147642669,2147055058,2148264091,2147198308,52,5,13,20057
1336093046,5809,1004.8300170898438000,46.7547492980957000,675.4763183593750000,4.1171250343322750,54.1926918029785160,52,99,88,81,83,15301,2147758235,2147420763,2148008438,2147874121,2147645074,2147058496,2148260224,2147197522,417,4,13,18302
1336096646,5810,1010.6400146484375000,46.7157592773437500,676.0219726562500000,4.0990600585937500,54.2087211608886700,53,99,90,79,84,15289,2147756141,2147419364,2148009554,2147875245,2147642761,2147059648,2148260214,2147200768,70,5,13,20438
1336100246,5810,1011.7600097656250000,46.6883201599121100,674.9000854492188000,4.1361918449401855,54.1949996948242200,53,102,90,80,83,15302,2147762194,2147422253,2148009618,2147875712,2147642870,2147059291,2148265408,2147202148,158,4,13,15413
1336103846,5806,1002.5800170898438000,46.5049705505371100,674.9146728515625000,4.1357078552246090,54.2188606262207000,53,102,87,79,83,15302,2147759853,2147424731,2148009334,2147873490,2147644470,2147062857,2148264237,2147203081,725,4,13,35543
1336107446,5806,1004.3200073242188000,46.9713706970214840,676.4998779296875000,4.0832409858703610,54.1722908020019500,53,100,91,79,83,15302,2147762514,2147422400,2148009627,2147874980,2147646445,2147060562,2148263835,2147200548,736,4,13,1250
1336111046,5812,1014.3200073242188000,46.8933792114257800,674.7697753906250000,4.1405048370361330,54.1654090881347660,53,99,87,79,84,15300,2147760676,2147425901,2148005458,2147872027,2147643328,2147060406,2148265133,2147200466,97,4,13,11591
1336114646,5806,1011.0300292968750000,46.3024482727050800,674.6912231445312000,4.1431031227111820,54.2462501525878900,53,101,90,80,83,15296,2147764745,2147424832,2148010267,2147874304,2147643136,2147062473,2148266496,2147200960,715,4,13,54282
1336118246,5809,1020.0800170898438000,46.3936805725097660,674.5742797851562000,4.1469731330871580,54.2296791076660160,53,99,90,79,83,15297,2147761618,2147422418,2148007661,2147874002,2147641453,2147063570,2148262272,2147202404,2321,4,13,45308
1336121846,5809,1026.9100341796875000,46.1543693542480500,672.8607788085938000,4.2036480903625490,54.2439994812011700,53,103,91,79,84,15299,2147760685,2147420909,2148004973,2147873673,2147641097,2147059200,2148266221,2147198628,891,4,14,16585
1336125446,5810,1016.0300292968750000,45.4188919067382800,672.9038696289062000,4.2022252082824710,54.3540000915527340,53,98,91,79,84,15299,2147761819,2147420635,2148006802,2147873618,2147641426,2147065673,2148266697,2147203648,3337,4,13,46811
1336129046,5810,1021.1900024414062000,45.6271018981933600,673.2064208984375000,4.1922211647033690,54.3230705261230500,52,98,92,79,82,15297,2147760155,2147418660,2148007222,2147875163,2147642212,2147069440,2148267510,2147199305,900,4,13,16726
1336132646,5810,1014.9299926757812000,45.8073692321777340,673.5742797851562000,4.1800541877746580,54.3037986755371100,52,100,91,80,82,15296,2147758619,2147419958,2148007981,2147874413,2147641024,2147064045,2148268224,2147201801,3247,4,13,55066
1336136246,5812,1009.8400268554688000,46.1055412292480500,673.6795043945312000,4.1765727996826170,54.2650604248046900,52,99,86,79,83,15297,2147757065,2147424091,2148006930,2147873453,2147642477,2147056100,2148266157,2147201901,2984,4,13,13512
1336139846,5805,1019.0599975585938000,46.9266891479492200,675.6292724609375000,4.1120610237121580,54.1732482910156250,53,100,89,79,84,15296,2147758326,2147422198,2148007954,2147875876,2147642889,2147065938,2148262381,2147201938,3596,4,14,6651
1336143446,5807,1019.2399902343750000,46.6282806396484400,674.3867797851562000,4.1531729698181150,54.1953697204589840,53,97,91,79,83,15294,2147759552,2147422857,2148007725,2147875840,2147645321,2147058797,2148266066,2147200237,117,4,13,46493
1336147046,5808,1005.0900268554688000,46.3805007934570300,675.0067138671875000,4.1326642036437990,54.2402801513671900,53,98,91,80,84,15288,2147758756,2147422592,2148007213,2147874084,2147642953,2147061705,2148268708,2147201517,134,4,13,57573
1336150646,5806,1006.1900024414062000,46.6187286376953100,675.8679199218750000,4.1041622161865230,54.2165298461914060,53,102,91,80,84,15293,2147762011,2147421238,2148006601,2147873609,2147645952,2147065746,2148264777,2147203401,143,4,14,50252
1336154246,5810,1016.5599975585938000,46.5093803405761700,675.1931152343750000,4.1264948844909670,54.2200393676757800,52,101,88,78,84,15294,2147761773,2147421851,2148007506,2147873344,2147641773,2147059730,2148263049,2147207670,890,4,13,27655
1336157846,5806,1015.3099975585938000,46.0838317871093750,675.3330078125000000,4.1218662261962890,54.2840309143066400,53,99,91,80,84,15285,2147758317,2147418916,2148008850,2147874834,2147644818,2147060672,2148265718,2147199405,3283,4,13,46264
1336161355,5812,1015.5700073242188000,46.5803489685058600,675.7556152343750000,4.1078801155090330,54.2170600891113300,52,102,85,80,83,15305,2147760018,2147422692,2148005165,2147877504,2147646070,2147063625,2148266752,2147201819,3496,4,13,23728
